sat.trackr.live / text

‹ back to catalog

ONEWEB-0390

NORAD 50470 · 2021-132B

PAYLOAD ACTIVE UNKNOWN

§ Identity

Operator
Country
UK
Launch date
2021-12-27
Launch site
TYMSC
Launch vehicle
Mass (kg)
RCS (m²)

Purposes: comms

External: N2YO · Heavens-Above · Gunter

§ Orbital elements

Epoch: 2026-09-20T04:43:01.375680Z

Period
109.29 min
Inclination
87.9198°
Eccentricity
0.0001660
Mean motion
13.17650589 rev/d
Perigee alt
1,192.5 km
Apogee alt
1,195.0 km
Semi-major
7,571.8 km
B*
1.0554e-4
RAAN
347.0028°
Arg perigee
105.0425°
Mean anomaly
255.0890°
Rev number
23,059

§ Raw data

ONEWEB-03901 50470U 21132B   26263.19654370  .00000054  00000+0  10554-3 0  99952 50470  87.9198 347.0028 0001660 105.0425 255.0890 13.17650589230597

JSON: /api/v1/satellites/50470 · /tle

For live sub-satellite position, see the globe view (requires WebGL).

§ Visibility from observer

Set your observer location to see the next 7 days of passes ≥ 10°. The values pass through the URL so the page stays shareable.

No JS? Fill the form by hand. The geolocation button needs JavaScript.